This demonstration page uses our WeatherBlox Daily Observations layout. Learn more.

Left ArrowRight Arrow

Hourly Observations for August 28, 2015

Temp ( °F °C ) Dew Point ( °F °C ) Humidity (%) Winds ( mph kmh ) Pressure ( in mb ) Visibility ( mi km ) Precip ( " mm )
12:15 am 00:15 Clear 70 21.1 68 19.8 92 92 NW 6 9 29.80 1009 10 16 N/A
12:35 am 00:35 Clear 70 20.9 67 19.6 92 92 NNW 3 6 29.80 1009 7 11 N/A
12:55 am 00:55 Clear 69 20.6 67 19.6 94 94 W 6 9 29.80 1009 7 11 N/A
1:15 am 01:15 Partly Cloudy 69 20.6 67 19.6 94 94 W 3 6 29.80 1009 7 11 N/A
1:35 am 01:35 Mostly Cloudy with Mist and Fog 69 20.5 67 19.5 94 94 W 7 11 29.80 1009 5 8 N/A
1:55 am 01:55 Cloudy with Mist and Fog 70 20.9 68 20 95 95 WNW 5 7 29.83 1010 5 8 N/A
2:15 am 02:15 Cloudy 70 21.2 69 20.3 95 95 WNW 6 9 29.83 1010 7 11 N/A
2:35 am 02:35 Mostly Cloudy 71 21.4 69 20.4 94 94 WNW 7 11 29.80 1009 7 11 N/A
2:55 am 02:55 Partly Cloudy 69 20.7 67 19.7 94 94 W 7 11 29.80 1009 7 11 N/A
3:15 am 03:15 Clear 69 20.5 67 19.6 95 95 W 9 15 29.80 1009 7 11 N/A
3:35 am 03:35 Clear 69 20.8 68 19.9 95 95 W 10 17 29.80 1009 7 11 N/A
3:55 am 03:55 Clear 69 20.8 68 19.8 94 94 W 9 15 29.80 1009 7 11 N/A
4:15 am 04:15 Clear 69 20.7 67 19.7 94 94 WNW 12 19 29.80 1009 7 11 N/A
4:35 am 04:35 Clear 69 20.6 67 19.6 94 94 WNW 14 22 29.80 1009 7 11 N/A
4:55 am 04:55 Clear 69 20.4 67 19.3 93 93 WNW 9 15 29.80 1009 7 11 N/A
5:15 am 05:15 Clear 68 20.2 66 19.1 93 93 WNW 9 15 29.80 1009 7 11 N/A
5:35 am 05:35 Clear 68 20 66 19 94 94 WNW 9 15 29.80 1009 7 11 N/A
5:55 am 05:55 Clear 68 20.1 66 19.1 94 94 WNW 10 17 29.80 1009 7 11 N/A
6:15 am 06:15 Mostly Cloudy 69 20.3 67 19.3 94 94 NW 13 20 29.83 1010 7 11 N/A
6:35 am 06:35 Cloudy 68 20.2 66 19.1 93 93 NW 13 20 29.83 1010 7 11 N/A
6:55 am 06:55 Cloudy 68 20.2 66 19 93 93 NW 9 15 29.83 1010 7 11 N/A
7:15 am 07:15 Cloudy 69 20.3 66 19.1 93 93 NW 9 15 29.83 1010 7 11 N/A
7:35 am 07:35 Cloudy 69 20.5 67 19.2 92 92 NW 9 15 29.83 1010 7 11 N/A
7:55 am 07:55 Cloudy 69 20.3 66 19 92 92 NNW 10 17 29.85 1011 10 16 N/A
8:15 am 08:15 Cloudy 69 20.4 66 18.8 91 91 NNW 7 11 29.85 1011 10 16 N/A
8:35 am 08:35 Cloudy 69 20.5 66 19 91 91 NW 7 11 29.85 1011 10 16 N/A
8:55 am 08:55 Cloudy 70 21.1 66 19 88 88 NW 8 13 29.85 1011 10 16 N/A
9:15 am 09:15 Cloudy 70 21.2 66 19 87 87 NW 13 20 29.85 1011 10 16 N/A
9:35 am 09:35 Cloudy 71 21.6 66 19.1 86 86 NW 12 19 29.85 1011 10 16 N/A
9:55 am 09:55 Mostly Cloudy 72 22.3 67 19.2 83 83 NW 10 17 29.85 1011 10 16 N/A
10:15 am 10:15 Mostly Cloudy 73 22.6 65 18.6 78 78 NNW 13 20 29.88 1012 10 16 N/A
10:35 am 10:35 Cloudy 74 23.2 65 18.4 75 75 N 10 17 29.88 1012 10 16 N/A
10:55 am 10:55 Cloudy 74 23.5 65 18.6 74 74 NNW 12 19 29.85 1011 10 16 N/A
11:15 am 11:15 Cloudy 75 23.7 65 18.5 73 73 N 15 24 29.85 1011 10 16 N/A
11:35 am 11:35 Cloudy 76 24.6 66 18.7 70 70 N 15 24 29.85 1011 10 16 N/A
11:55 am 11:55 Mostly Cloudy 76 24.5 65 18.6 70 70 N 15 24 29.88 1012 10 16 N/A
12:15 pm 12:15 Cloudy 75 24 65 18.3 71 71 N 14 22 29.88 1012 10 16 N/A
12:35 pm 12:35 Cloudy 75 23.7 65 18.6 73 73 N 8 13 29.88 1012 10 16 N/A
12:55 pm 12:55 Cloudy 75 24 65 18.5 71 71 N 10 17 29.88 1012 10 16 N/A
1:15 pm 13:15 Cloudy 75 24 65 18.6 72 72 N 9 15 29.88 1012 10 16 N/A
1:35 pm 13:35 Cloudy 76 24.6 65 18.5 69 69 N 14 22 29.88 1012 10 16 N/A
1:55 pm 13:55 Cloudy 77 25.1 66 18.7 68 68 NNE 13 20 29.88 1012 10 16 N/A
2:15 pm 14:15 Cloudy 78 25.3 65 18.1 64 64 N 13 20 29.88 1012 10 16 N/A
2:35 pm 14:35 Cloudy 78 25.5 65 18.3 64 64 N 14 22 29.88 1012 10 16 N/A
2:55 pm 14:55 Cloudy 78 25.5 65 18.6 66 66 N 9 15 29.88 1012 10 16 N/A
3:15 pm 15:15 Cloudy 79 26 65 18.1 62 62 N 7 11 29.88 1012 10 16 N/A
3:35 pm 15:35 Mostly Cloudy 80 26.5 65 18.1 60 60 N 9 15 29.85 1011 10 16 N/A
3:55 pm 15:55 Partly Cloudy 81 27 64 17.5 56 56 NNW 8 13 29.85 1011 10 16 N/A
4:15 pm 16:15 Partly Cloudy 81 27 64 17.7 57 57 N 13 20 29.85 1011 10 16 N/A
4:35 pm 16:35 Partly Cloudy 79 26.3 64 17.9 60 60 N 10 17 29.88 1012 10 16 N/A
4:55 pm 16:55 Partly Cloudy 80 26.6 64 18 59 59 N 14 22 29.85 1011 10 16 N/A
5:15 pm 17:15 Partly Cloudy 79 26 64 17.7 60 60 N 8 13 29.88 1012 10 16 N/A
5:35 pm 17:35 Partly Cloudy 80 26.5 64 17.5 58 58 N 10 17 29.85 1011 10 16 N/A
5:55 pm 17:55 Sunny 79 26.2 63 17 57 57 N 10 17 29.88 1012 10 16 N/A
6:15 pm 18:15 Sunny 79 26 63 17 58 58 N 9 15 29.88 1012 10 16 N/A
6:35 pm 18:35 Sunny 78 25.7 62 16.8 58 58 N 9 15 29.88 1012 10 16 N/A
6:55 pm 18:55 Sunny 78 25.5 62 16.7 58 58 N 8 13 29.88 1012 10 16 N/A
7:15 pm 19:15 Sunny 76 24.7 62 16.6 61 61 NNE 7 11 29.88 1012 10 16 N/A
7:35 pm 19:35 Sunny 75 23.9 63 17.1 66 66 NNE 6 9 29.88 1012 10 16 N/A
7:55 pm 19:55 Sunny 72 22.4 63 17.3 73 73 NNE 5 7 29.91 1013 10 16 N/A
8:15 pm 20:15 Sunny 71 21.5 63 17.1 76 76 NE 6 9 29.94 1014 10 16 N/A
8:35 pm 20:35 Clear 69 20.4 63 17 81 81 NE 5 7 29.97 1015 10 16 N/A
8:55 pm 20:55 Clear 68 20 63 17 83 83 NE 6 9 29.97 1015 10 16 N/A
9:15 pm 21:15 Clear 67 19.5 62 16.7 84 84 NNE 3 6 29.97 1015 10 16 N/A
9:35 pm 21:35 Clear 66 18.7 62 16.4 87 87 N 3 6 29.97 1015 10 16 N/A
9:55 pm 21:55 Clear 65 18.6 62 16.5 88 88 Calm 29.97 1015 10 16 N/A
10:15 pm 22:15 Clear 64 17.8 61 15.9 89 89 Calm 29.97 1015 10 16 N/A
10:35 pm 22:35 Clear 64 17.8 60 15.5 86 86 Calm 29.97 1015 10 16 N/A
10:55 pm 22:55 Clear 62 16.9 60 15.4 91 91 Calm 30.03 1017 10 16 N/A
11:15 pm 23:15 Clear 62 16.4 59 15 91 91 Calm 30.03 1017 10 16 N/A
11:35 pm 23:35 Clear 61 16 59 15 94 94 Calm 30.03 1017 10 16 N/A
11:55 pm 23:55 Clear 61 16.1 59 15 93 93 W 5 7 30.03 1017 10 16 N/A

Powered by AerisWeather